Location: Beadle
(51.4667°N, 109.0000°W)
Time: 09:50:20
(UTC+00:00)

deb Explorer IX - Pass Details

Date: 06 June 2022
Orbit: 535 x 1068 km, 38.8° (Epoch: 04 July)

Event Time Altitude Azimuth Distance (km) Brightness Sun altitude
Rises 16:57:04 0° 253° (WSW) 3,819 ? 50.9°
Reaches altitude 10° 17:00:10 10° 243° (WSW) 2,889 ? 51.3°
Maximum altitude 17:06:00 28° 188° (S) 1,886 ? 52.0°
Drops below altitude 10° 17:11:43 10° 133° (SE) 2,828 ? 52.7°
Sets 17:14:43 0° 122° (ESE) 3,724 ? 53.1°
